Location: Balaclava NSW 2575, Australia
(34.4510°S, 150.4953°E)
Time: 10:23:24
(UTC+10:00)

N. Korean satellite - Pass Details

Date: 18 May 2021
Orbit: 450 x 499 km, 97.2° (Epoch: 24 June)

Event Time Altitude Azimuth Distance (km) Brightness Sun altitude
Rises 04:48:57 0° 3° (N) 2,479 10.3 -24.1°
Reaches altitude 10° 04:50:59 10° 359° (N) 1,621 9.3 -23.7°
Enters shadow 04:51:00 10° 359° (N) 1,618 9.3 -23.7°
